| time (UTC) | temp F | wind direction | speed MPH | gust MPH | rain 1hr in | rain 24hr in | rain mn in | humidity % | barometer mb |
| 20260901150918 | 89 | 192 | 2.0 | 10.0 | 0.00 | 0.00 | 0.00 | 26 | 1020.8 |
| 20260901145919 | 88 | 266 | 4.0 | 13.0 | 0.00 | 0.00 | 0.00 | 26 | 1020.8 |
| 20260901144926 | 88 | 180 | 3.0 | 9.0 | 0.00 | 0.00 | 0.00 | 26 | 1020.9 |
| 20260901143914 | 88 | 178 | 2.0 | 7.0 | 0.00 | 0.00 | 0.00 | 27 | 1020.9 |
| 20260901142914 | 88 | 171 | 0.0 | 9.0 | 0.00 | 0.00 | 0.00 | 29 | 1020.8 |
| 20260901141922 | 88 | 175 | 4.0 | 11.0 | 0.00 | 0.00 | 0.00 | 28 | 1020.9 |
| 20260901140913 | 88 | 186 | 3.0 | 10.0 | 0.00 | 0.00 | 0.00 | 29 | 1021.0 |
| 20260901135912 | 88 | 175 | 2.0 | 11.0 | 0.00 | 0.00 | 0.00 | 29 | 1021.1 |
| 20260901134918 | 88 | 187 | 3.0 | 12.0 | 0.00 | 0.00 | 0.00 | 29 | 1021.2 |
| 20260901133925 | 88 | 194 | 3.0 | 8.0 | 0.00 | 0.00 | 0.00 | 29 | 1021.2 |
| 20260901132924 | 87 | 182 | 1.0 | 7.0 | 0.00 | 0.00 | 0.00 | 31 | 1021.3 |
| 20260901131930 | 86 | 178 | 1.0 | 9.0 | 0.00 | 0.00 | 0.00 | 32 | 1021.4 |
| 20260901130920 | 86 | 180 | 2.0 | 9.0 | 0.00 | 0.00 | 0.00 | 32 | 1021.5 |
| 20260901125921 | 86 | 162 | 1.0 | 7.0 | 0.00 | 0.00 | 0.00 | 32 | 1021.6 |
| 20260901124926 | 86 | 270 | 2.0 | 10.0 | 0.00 | 0.00 | 0.00 | 32 | 1021.7 |
| 20260901123922 | 86 | 207 | 1.0 | 6.0 | 0.00 | 0.00 | 0.00 | 33 | 1021.7 |
| 20260901122915 | 86 | 193 | 2.0 | 11.0 | 0.00 | 0.00 | 0.00 | 35 | 1021.9 |
| 20260901121921 | 85 | 205 | 2.0 | 10.0 | 0.00 | 0.00 | 0.00 | 34 | 1021.8 |
| 20260901120930 | 85 | 201 | 3.0 | 10.0 | 0.00 | 0.00 | 0.00 | 35 | 1022.0 |
| 20260901115916 | 85 | 186 | 1.0 | 8.0 | 0.00 | 0.00 | 0.00 | 35 | 1022.1 |
| 20260901114924 | 85 | 201 | 3.0 | 8.0 | 0.00 | 0.00 | 0.00 | 36 | 1022.2 |
| 20260901113912 | 84 | 200 | 1.0 | 8.0 | 0.00 | 0.00 | 0.00 | 38 | 1022.2 |
| 20260901111915 | 82 | 174 | 1.0 | 10.0 | 0.00 | 0.00 | 0.00 | 42 | 1022.3 |
| 20260901110919 | 82 | 173 | 1.0 | 5.0 | 0.00 | 0.00 | 0.00 | 42 | 1022.4 |
| 20260901105921 | 81 | 175 | 1.0 | 8.0 | 0.00 | 0.00 | 0.00 | 43 | 1022.5 |
| 20260901104928 | 80 | 167 | 0.0 | 4.0 | 0.00 | 0.00 | 0.00 | 45 | 1022.6 |
| 20260901103918 | 79 | 171 | 0.0 | 1.0 | 0.00 | 0.00 | 0.00 | 46 | 1022.7 |
| 20260901102921 | 79 | 171 | 0.0 | 3.0 | 0.00 | 0.00 | 0.00 | 46 | 1022.7 |
| 20260901101930 | 79 | 171 | 1.0 | 7.0 | 0.00 | 0.00 | 0.00 | 46 | 1022.7 |
| 20260901100918 | 79 | 169 | 1.0 | 9.0 | 0.00 | 0.00 | 0.00 | 46 | 1022.8 |
| 20260901095924 | 79 | 164 | 0.0 | 5.0 | 0.00 | 0.00 | 0.00 | 46 | 1022.8 |
| 20260901094912 | 78 | 151 | 0.0 | 6.0 | 0.00 | 0.00 | 0.00 | 47 | 1022.8 |
| 20260901093920 | 77 | 142 | 0.0 | 5.0 | 0.00 | 0.00 | 0.00 | 48 | 1022.7 |
| 20260901092922 | 76 | 142 | 2.0 | 7.0 | 0.00 | 0.00 | 0.00 | 51 | 1022.7 |
| 20260901090922 | 73 | 35 | 0.0 | 0.0 | 0.00 | 0.00 | 0.00 | 55 | 1022.8 |
| 20260901085924 | 73 | 35 | 0.0 | 0.0 | 0.00 | 0.00 | 0.00 | 56 | 1022.8 |
| 20260901084911 | 72 | 36 | 3.0 | 5.0 | 0.00 | 0.00 | 0.00 | 56 | 1022.8 |
| 20260901083925 | 71 | 35 | 0.0 | 0.0 | 0.00 | 0.00 | 0.00 | 57 | 1022.7 |
| 20260901082928 | 71 | 35 | 0.0 | 2.0 | 0.00 | 0.00 | 0.00 | 53 | 1022.7 |
| 20260901081912 | 70 | 35 | 0.0 | 0.0 | 0.00 | 0.00 | 0.00 | 53 | 1022.7 |
| 20260901080921 | 70 | 34 | 0.0 | 1.0 | 0.00 | 0.00 | 0.00 | 53 | 1022.8 |
| 20260901075924 | 69 | 34 | 0.0 | 0.0 | 0.00 | 0.00 | 0.00 | 49 | 1022.8 |
| 20260901074912 | 68 | 34 | 0.0 | 0.0 | 0.00 | 0.00 | 0.00 | 49 | 1022.8 |
| 20260901073919 | 68 | 34 | 0.0 | 0.0 | 0.00 | 0.00 | 0.00 | 49 | 1022.8 |
| 20260901072921 | 67 | 34 | 0.0 | 0.0 | 0.00 | 0.00 | 0.00 | 51 | 1022.8 |
| 20260901071912 | 66 | 34 | 0.0 | 0.0 | 0.00 | 0.00 | 0.00 | 50 | 1022.8 |
| 20260901070919 | 66 | 34 | 0.0 | 0.0 | 0.00 | 0.00 | 0.00 | 51 | 1022.9 |
| 20260901064914 | 64 | 34 | 0.0 | 0.0 | 0.00 | 0.00 | 0.00 | 54 | 1022.8 |
| 20260901063920 | 62 | 34 | 0.0 | 0.0 | 0.00 | 0.00 | 0.00 | 54 | 1022.9 |
| 20260901062923 | 61 | 34 | 0.0 | 0.0 | 0.00 | 0.00 | 0.00 | 55 | 1022.7 |
| 20260901061930 | 62 | 34 | 0.0 | 0.0 | 0.00 | 0.00 | 0.00 | 53 | 1022.6 |
| 20260901060924 | 61 | 34 | 0.0 | 0.0 | 0.00 | 0.00 | 0.00 | 56 | 1022.5 |
| 20260901055927 | 61 | 34 | 0.0 | 0.0 | 0.00 | 0.00 | 0.00 | 54 | 1022.6 |
| 20260901054915 | 61 | 34 | 0.0 | 0.0 | 0.00 | 0.00 | 0.00 | 55 | 1022.5 |
| 20260901053924 | 61 | 34 | 0.0 | 0.0 | 0.00 | 0.00 | 0.00 | 56 | 1022.4 |
| 20260901052929 | 62 | 34 | 0.0 | 0.0 | 0.00 | 0.00 | 0.00 | 55 | 1022.3 |
| 20260901051917 | 62 | 34 | 0.0 | 0.0 | 0.00 | 0.00 | 0.00 | 56 | 1022.2 |
| 20260901050927 | 62 | 34 | 0.0 | 0.0 | 0.00 | 0.00 | 0.00 | 55 | 1022.1 |
| 20260901045925 | 62 | 34 | 0.0 | 0.0 | 0.00 | 0.00 | 0.00 | 55 | 1022.0 |
| 20260901044919 | 63 | 34 | 0.0 | 0.0 | 0.00 | 0.00 | 0.00 | 56 | 1021.9 |
| 20260901043928 | 62 | 34 | 0.0 | 0.0 | 0.00 | 0.00 | 0.00 | 54 | 1021.9 |
| 20260901042927 | 62 | 34 | 0.0 | 0.0 | 0.00 | 0.00 | 0.00 | 53 | 1022.0 |
| 20260901041917 | 63 | 34 | 0.0 | 0.0 | 0.00 | 0.00 | 0.00 | 53 | 1022.0 |
| 20260901040910 | 63 | 34 | 0.0 | 0.0 | 0.00 | 0.00 | 0.00 | 52 | 1022.0 |
| 20260901035911 | 63 | 34 | 0.0 | 0.0 | 0.00 | 0.00 | 0.00 | 51 | 1022.0 |
| 20260901034919 | 63 | 34 | 0.0 | 0.0 | 0.00 | 0.00 | 0.00 | 50 | 1021.8 |
| 20260901033927 | 63 | 34 | 0.0 | 0.0 | 0.00 | 0.00 | 0.00 | 50 | 1021.8 |
| 20260901032923 | 64 | 34 | 0.0 | 0.0 | 0.00 | 0.00 | 0.00 | 49 | 1021.8 |
| 20260901031917 | 64 | 34 | 0.0 | 0.0 | 0.00 | 0.00 | 0.00 | 48 | 1021.8 |
| 20260901030926 | 65 | 34 | 0.0 | 0.0 | 0.00 | 0.00 | 0.00 | 49 | 1021.7 |
| 20260901025928 | 65 | 34 | 0.0 | 0.0 | 0.00 | 0.00 | 0.00 | 50 | 1021.7 |
| 20260901024921 | 65 | 34 | 327.0 | 327.0 | 0.00 | 0.00 | 0.00 | 50 | 1021.9 |
| 20260901023928 | 65 | 34 | 0.0 | 0.0 | 0.00 | 0.00 | 0.00 | 50 | 1021.8 |
| 20260901022930 | 66 | 34 | 0.0 | 0.0 | 0.00 | 0.00 | 0.00 | 48 | 1021.8 |
| 20260901021920 | 66 | 34 | 0.0 | 0.0 | 0.00 | 0.00 | 0.00 | 49 | 1021.9 |
| 20260901020913 | 67 | 34 | 0.0 | 0.0 | 0.00 | 0.00 | 0.00 | 49 | 1021.8 |
| 20260901015912 | 67 | 34 | 0.0 | 0.0 | 0.00 | 0.00 | 0.00 | 49 | 1021.9 |
| 20260901014922 | 67 | 34 | 0.0 | 0.0 | 0.00 | 0.00 | 0.00 | 49 | 1021.8 |
| 20260901013911 | 68 | 34 | 0.0 | 0.0 | 0.00 | 0.00 | 0.00 | 48 | 1021.8 |
| 20260901012915 | 68 | 34 | 0.0 | 0.0 | 0.00 | 0.00 | 0.00 | 48 | 1021.8 |
| 20260901011924 | 68 | 34 | 0.0 | 0.0 | 0.00 | 0.00 | 0.00 | 47 | 1021.9 |
| 20260901010913 | 69 | 34 | 0.0 | 0.0 | 0.00 | 0.00 | 0.00 | 47 | 1022.0 |
| 20260901005913 | 69 | 34 | 0.0 | 0.0 | 0.00 | 0.00 | 0.00 | 46 | 1022.0 |
| 20260901004926 | 68 | 34 | 0.0 | 0.0 | 0.00 | 0.00 | 0.00 | 45 | 1022.0 |
| 20260901003916 | 67 | 34 | 0.0 | 0.0 | 0.00 | 0.00 | 0.00 | 45 | 1022.0 |
| 20260901002920 | 67 | 34 | 0.0 | 0.0 | 0.00 | 0.00 | 0.00 | 45 | 1022.1 |
| 20260901001926 | 66 | 34 | 0.0 | 1.0 | 0.00 | 0.00 | 0.00 | 46 | 1022.0 |
| 20260901000919 | 65 | 34 | 0.0 | 0.0 | 0.00 | 0.00 | 0.00 | 46 | 1021.9 |
| 20260831235921 | 65 | 34 | 0.0 | 0.0 | 0.00 | 0.00 | 0.00 | 47 | 1022.0 |
| 20260831234911 | 65 | 34 | 0.0 | 0.0 | 0.00 | 0.00 | 0.00 | 47 | 1022.0 |
| 20260831233917 | 67 | 34 | 0.0 | 0.0 | 0.00 | 0.00 | 0.00 | 44 | 1021.9 |
| 20260831232924 | 68 | 34 | 0.0 | 0.0 | 0.00 | 0.00 | 0.00 | 43 | 1021.8 |
| 20260831231913 | 69 | 34 | 0.0 | 0.0 | 0.00 | 0.00 | 0.00 | 42 | 1021.7 |
| 20260831230921 | 69 | 34 | 0.0 | 1.0 | 0.00 | 0.00 | 0.00 | 43 | 1021.8 |
| 20260831225923 | 69 | 34 | 0.0 | 0.0 | 0.00 | 0.00 | 0.00 | 43 | 1021.8 |
| 20260831224915 | 69 | 34 | 0.0 | 0.0 | 0.00 | 0.00 | 0.00 | 43 | 1021.8 |
| 20260831223923 | 69 | 34 | 0.0 | 0.0 | 0.00 | 0.00 | 0.00 | 42 | 1021.8 |
| 20260831222925 | 69 | 34 | 0.0 | 0.0 | 0.00 | 0.00 | 0.00 | 42 | 1021.7 |
| 20260831221918 | 69 | 34 | 0.0 | 0.0 | 0.00 | 0.00 | 0.00 | 42 | 1021.7 |
| 20260831220926 | 70 | 34 | 0.0 | 0.0 | 0.00 | 0.00 | 0.00 | 40 | 1021.7 |
| 20260831215926 | 71 | 34 | 0.0 | 0.0 | 0.00 | 0.00 | 0.00 | 40 | 1021.7 |
| 20260831214915 | 71 | 34 | 0.0 | 0.0 | 0.00 | 0.00 | 0.00 | 39 | 1021.7 |
| 20260831213928 | 72 | 34 | 0.0 | 0.0 | 0.00 | 0.00 | 0.00 | 38 | 1021.7 |
| 20260831212928 | 73 | 35 | 0.0 | 4.0 | 0.00 | 0.00 | 0.00 | 37 | 1021.7 |
| 20260831211916 | 73 | 36 | 0.0 | 0.0 | 0.00 | 0.00 | 0.00 | 36 | 1021.7 |
| 20260831210925 | 74 | 36 | 0.0 | 0.0 | 0.00 | 0.00 | 0.00 | 35 | 1021.7 |
| 20260831205930 | 74 | 36 | 0.0 | 0.0 | 0.00 | 0.00 | 0.00 | 35 | 1021.6 |
| 20260831204919 | 75 | 36 | 0.0 | 6.0 | 0.00 | 0.00 | 0.00 | 35 | 1021.5 |
| 20260831203929 | 75 | 51 | 2.0 | 5.0 | 0.00 | 0.00 | 0.00 | 33 | 1021.4 |
| 20260831203012 | 76 | 177 | 0.0 | 0.0 | 0.00 | 0.00 | 0.00 | 31 | 1021.3 |
| 20260831201916 | 77 | 177 | 0.0 | 0.0 | 0.00 | 0.00 | 0.00 | 30 | 1021.2 |
| 20260831200929 | 77 | 177 | 0.0 | 0.0 | 0.00 | 0.00 | 0.00 | 30 | 1021.1 |
| 20260831195911 | 77 | 177 | 0.0 | 0.0 | 0.00 | 0.00 | 0.00 | 30 | 1020.9 |
| 20260831194921 | 77 | 177 | 0.0 | 0.0 | 0.00 | 0.00 | 0.00 | 30 | 1020.8 |
| 20260831193912 | 77 | 177 | 0.0 | 2.0 | 0.00 | 0.00 | 0.00 | 29 | 1020.7 |
| 20260831192915 | 78 | 177 | 0.0 | 0.0 | 0.00 | 0.00 | 0.00 | 29 | 1020.6 |
| 20260831191923 | 78 | 177 | 0.0 | 3.0 | 0.00 | 0.00 | 0.00 | 28 | 1020.6 |
| 20260831190911 | 79 | 177 | 0.0 | 0.0 | 0.00 | 0.00 | 0.00 | 27 | 1020.4 |
| 20260831185911 | 80 | 177 | 0.0 | 0.0 | 0.00 | 0.00 | 0.00 | 26 | 1020.4 |
| 20260831184918 | 81 | 177 | 0.0 | 0.0 | 0.00 | 0.00 | 0.00 | 26 | 1020.5 |
| 20260831183930 | 81 | 177 | 0.0 | 0.0 | 0.00 | 0.00 | 0.00 | 25 | 1020.5 |
| 20260831182929 | 82 | 177 | 0.0 | 0.0 | 0.00 | 0.00 | 0.00 | 25 | 1020.5 |
| 20260831181916 | 83 | 177 | 0.0 | 3.0 | 0.00 | 0.00 | 0.00 | 24 | 1020.5 |
| 20260831180923 | 84 | 177 | 0.0 | 8.0 | 0.00 | 0.00 | 0.00 | 24 | 1020.5 |
| 20260831175921 | 84 | 168 | 0.0 | 3.0 | 0.00 | 0.00 | 0.00 | 25 | 1020.6 |
| 20260831174912 | 85 | 168 | 1.0 | 5.0 | 0.00 | 0.00 | 0.00 | 24 | 1020.4 |
| 20260831173920 | 86 | 168 | 0.0 | 6.0 | 0.00 | 0.00 | 0.00 | 24 | 1020.5 |
| 20260831172919 | 86 | 167 | 0.0 | 4.0 | 0.00 | 0.00 | 0.00 | 24 | 1020.5 |
| 20260831171923 | 86 | 166 | 0.0 | 5.0 | 0.00 | 0.00 | 0.00 | 23 | 1020.5 |
| 20260831170911 | 87 | 180 | 2.0 | 6.0 | 0.00 | 0.00 | 0.00 | 23 | 1020.5 |
| 20260831165912 | 87 | 187 | 3.0 | 8.0 | 0.00 | 0.00 | 0.00 | 22 | 1020.6 |
| 20260831164922 | 88 | 189 | 0.0 | 5.0 | 0.00 | 0.00 | 0.00 | 22 | 1020.5 |
| 20260831163929 | 87 | 182 | 1.0 | 8.0 | 0.00 | 0.00 | 0.00 | 23 | 1020.4 |
| 20260831162930 | 87 | 180 | 1.0 | 8.0 | 0.00 | 0.00 | 0.00 | 23 | 1020.4 |
| 20260831161917 | 87 | 175 | 0.0 | 7.0 | 0.00 | 0.00 | 0.00 | 24 | 1020.6 |
| 20260831160926 | 87 | 203 | 1.0 | 10.0 | 0.00 | 0.00 | 0.00 | 24 | 1020.6 |
| 20260831155925 | 88 | 191 | 1.0 | 8.0 | 0.00 | 0.00 | 0.00 | 23 | 1020.7 |
| 20260831154914 | 88 | 189 | 1.0 | 6.0 | 0.00 | 0.00 | 0.00 | 23 | 1020.8 |
| 20260831153922 | 87 | 236 | 1.0 | 8.0 | 0.00 | 0.00 | 0.00 | 24 | 1020.8 |
| 20260831152924 | 88 | 182 | 1.0 | 6.0 | 0.00 | 0.00 | 0.00 | 24 | 1020.8 |